Guest User

XBMC Log

a guest
Dec 13th, 2011
80
Never
Not a member of Pastebin yet? Sign Up, it unlocks many cool features!
  1. 22:07:57 T:2695742784 M:324042752 NOTICE: -----------------------------------------------------------------------
  2. 22:07:57 T:2695742784 M:324042752 NOTICE: Starting XBMC, Platform: Mac OS X (10.8.0 i386). Built on Mar 9 2011 (Git:e9e9099)
  3. 22:07:57 T:2695742784 M:324042752 NOTICE: special://xbmc/ is mapped to: /Applications/XBMC.app/Contents/Resources/XBMC
  4. 22:07:57 T:2695742784 M:324038656 NOTICE: special://xbmcbin/ is mapped to: /Applications/XBMC.app/Contents/Resources/XBMC
  5. 22:07:57 T:2695742784 M:324038656 NOTICE: special://masterprofile/ is mapped to: /Users/helle/Library/Application Support/XBMC/userdata
  6. 22:07:57 T:2695742784 M:324038656 NOTICE: special://home/ is mapped to: /Users/helle/Library/Application Support/XBMC
  7. 22:07:57 T:2695742784 M:324030464 NOTICE: special://temp/ is mapped to: /Users/helle/.xbmc/temp
  8. 22:07:57 T:2695742784 M:324038656 NOTICE: The executable running is: /Applications/XBMC.app/Contents/MacOS/XBMC
  9. 22:07:57 T:2695742784 M:324038656 NOTICE: Log File is located: /Users/helle/Library/Logs/xbmc.log
  10. 22:07:57 T:2695742784 M:324038656 NOTICE: -----------------------------------------------------------------------
  11. 22:07:57 T:2695742784 M:324038656 NOTICE: Setup SDL
  12. 22:07:59 T:2695742784 M:322121728 NOTICE: load settings...
  13. 22:07:59 T:2695742784 M:322113536 ERROR: Unable to load libcrystalhd.dylib, reason: dlopen(libcrystalhd.dylib, 1): image not found
  14. 22:07:59 T:2695742784 M:322109440 NOTICE: special://profile/ is mapped to: special://masterprofile/
  15. 22:07:59 T:2695742784 M:322109440 NOTICE: loading special://masterprofile/guisettings.xml
  16. 22:07:59 T:2695742784 M:321863680 NOTICE: Getting hardware information now...
  17. 22:07:59 T:2695742784 M:321863680 NOTICE: Checking resolution 12
  18. 22:07:59 T:2695742784 M:321863680 NOTICE: Loading player core factory settings from special://xbmc/system/playercorefactory.xml.
  19. 22:07:59 T:2695742784 M:321863680 NOTICE: Loaded playercorefactory configuration
  20. 22:07:59 T:2695742784 M:321863680 NOTICE: Loading player core factory settings from special://masterprofile/playercorefactory.xml.
  21. 22:07:59 T:2695742784 M:321863680 NOTICE: special://masterprofile/playercorefactory.xml does not exist. Skipping.
  22. 22:07:59 T:2695742784 M:321863680 NOTICE: No advancedsettings.xml to load (special://masterprofile/advancedsettings.xml)
  23. 22:07:59 T:2695742784 M:321863680 NOTICE: Default DVD Player: dvdplayer
  24. 22:07:59 T:2695742784 M:321863680 NOTICE: Default Video Player: dvdplayer
  25. 22:07:59 T:2695742784 M:321863680 NOTICE: Default Audio Player: paplayer
  26. 22:07:59 T:2695742784 M:321863680 NOTICE: Loading media sources from special://masterprofile/sources.xml
  27. 22:07:59 T:2695742784 M:319700992 NOTICE: GL_VENDOR = Intel Inc.
  28. 22:07:59 T:2695742784 M:319696896 NOTICE: GL_RENDERER = Intel GMA 950 OpenGL Engine
  29. 22:07:59 T:2695742784 M:319692800 NOTICE: GL_VERSION = 1.4 APPLE-1.6.36
  30. 22:07:59 T:2695742784 M:319692800 NOTICE: GL_SHADING_LANGUAGE_VERSION = 1.20
  31. 22:07:59 T:2695742784 M:319688704 NOTICE: GL_EXTENSIONS = GL_ARB_transpose_matrix GL_ARB_vertex_program GL_ARB_vertex_blend GL_ARB_window_pos GL_ARB_shader_objects GL_ARB_vertex_shader GL_ARB_shading_language_100 GL_EXT_multi_draw_arrays GL_EXT_clip_volume_hint GL_EXT_rescale_normal GL_EXT_draw_range_elements GL_EXT_fog_coord GL_EXT_gpu_program_parameters GL_EXT_geometry_shader4 GL_EXT_transform_feedback GL_APPLE_client_storage GL_APPLE_specular_vector GL_APPLE_transform_hint GL_APPLE_packed_pixels GL_APPLE_fence GL_APPLE_vertex_array_object GL_APPLE_vertex_program_evaluators GL_APPLE_element_array GL_APPLE_flush_render GL_APPLE_aux_depth_stencil GL_NV_texgen_reflection GL_NV_light_max_exponent GL_IBM_rasterpos_clip GL_SGIS_generate_mipmap GL_ARB_point_parameters GL_ARB_texture_env_crossbar GL_ARB_texture_border_clamp GL_ARB_multitexture GL_ARB_texture_env_add GL_ARB_texture_cube_map GL_ARB_texture_env_dot3 GL_ARB_texture_env_combine GL_ARB_texture_compression GL_ARB_texture_mirrored_repeat GL_ARB_shadow GL_ARB_depth_texture GL_ARB_fragment_program GL_ARB_fragment_program_shadow GL_ARB_fragment_shader GL_ARB_point_sprite GL_ARB_texture_non_power_of_two GL_ARB_vertex_buffer_object GL_ARB_pixel_buffer_object GL_EXT_framebuffer_object GL_EXT_texture_rectangle GL_ARB_texture_rectangle GL_EXT_texture_env_add GL_EXT_blend_color GL_EXT_blend_minmax GL_EXT_blend_subtract GL_EXT_texture_lod_bias GL_EXT_abgr GL_EXT_bgra GL_EXT_stencil_wrap GL_EXT_texture_filter_anisotropic GL_EXT_separate_specular_color GL_EXT_secondary_color GL_EXT_blend_func_separate GL_EXT_shadow_funcs GL_EXT_stencil_two_side GL_EXT_texture_compression_s3tc GL_EXT_texture_compression_dxt1 GL_EXT_texture_sRGB GL_EXT_blend_equation_separate GL_EXT_packed_depth_stencil GL_EXT_framebuffer_sRGB GL_EXT_provoking_vertex GL_APPLE_flush_buffer_range GL_APPLE_ycbcr_422 GL_APPLE_rgb_422 GL_APPLE_vertex_array_range GL_APPLE_texture_range GL_APPLE_pixel_buffer GL_APPLE_object_purgeable GL_NV_blend_square GL_ATI_texture_env_combine3 GL_ATI_separate_stencil GL_SGIS_texture_edge_clamp GL_SGIS_texture_lod
  32. 22:08:00 T:2695742784 M:312139776 NOTICE: start dvd mediatype detection
  33. 22:08:00 T:2695742784 M:312131584 NOTICE: initializing playlistplayer
  34. 22:08:00 T:2695742784 M:312127488 NOTICE: DONE initializing playlistplayer
  35. 22:08:01 T:2695742784 M:293535744 ERROR: Python script "script.tv.show.next.aired" does not exist
  36. 22:08:01 T:2695742784 M:293535744 NOTICE: UpdateLibraries - Starting video library startup scan
  37. 22:08:01 T:2695742784 M:293343232 NOTICE: UpdateLibraries - Starting music library startup scan
  38. 22:08:01 T:2955120640 M:293339136 NOTICE: VideoInfoScanner: Starting scan ..
  39. 22:08:01 T:2695742784 M:293179392 NOTICE: initialize done
  40. 22:08:01 T:2695742784 M:293171200 NOTICE: Running the application...
  41. 22:08:01 T:2955653120 M:292814848 NOTICE: My Music: Scanning for music info using worker thread, operation took 00:00
  42. 22:08:01 T:2695742784 M:292593664 NOTICE: Webserver: Starting...
  43. 22:08:01 T:2695742784 M:292589568 NOTICE: WebServer: Started the webserver
  44. 22:08:01 T:2695742784 M:292589568 NOTICE: starting upnp server
  45. 22:08:01 T:2695742784 M:292478976 NOTICE: starting upnp renderer
  46. 22:08:01 T:2695742784 M:292438016 NOTICE: ES: Starting event server
  47. 22:08:01 T:2960809984 M:292425728 NOTICE: ES: Starting UDP Event server on 0.0.0.0:9777
  48. 22:08:01 T:2960809984 M:292425728 NOTICE: UDP: Listening on port 9777
  49. 22:08:01 T:2695742784 M:292417536 NOTICE: starting zeroconf publishing
  50. 22:08:01 T:2956185600 M:289169408 NOTICE: -->Python Interpreter Initialized<--
  51. 22:08:02 T:2963472384 M:272547840 NOTICE: -->Python Interpreter Initialized<--
  52. 22:08:02 T:2956185600 M:264822784 NOTICE: {'unplayed': 'True', 'albums': 'False', 'limit': '8', 'totals': 'True'}
  53. 22:08:02 T:2963472384 M:264822784 NOTICE: {'unplayed': 'True', 'albums': 'False', 'limit': '8', 'totals': 'True'}
  54. 22:08:04 T:2962939904 M:254726144 ERROR: WEATHER: Unable to get data: Invalid License Key.
  55. 22:08:16 T:2963472384 M:186580992 NOTICE: -->Python Interpreter Initialized<--
  56. 22:08:17 T:2963472384 M:177639424 ERROR: Error Type: exceptions.TypeError
  57. 22:08:17 T:2963472384 M:177639424 ERROR: Error Contents: function takes exactly 1 argument (0 given)
  58. 22:08:17 T:2963472384 M:177639424 ERROR: Traceback (most recent call last):
  59. File "/Users/helle/Library/Application Support/XBMC/addons/plugin.video.yousee.tv/addon.py", line 238, in ?
  60. ADDON = xbmcaddon.Addon()
  61. TypeError: function takes exactly 1 argument (0 given)
  62. 22:08:17 T:2695742784 M:177639424 ERROR: GetDirectory - Error getting plugin://plugin.video.yousee.tv/
  63. 22:08:17 T:2695742784 M:177639424 ERROR: CGUIMediaWindow::GetDirectory(plugin://plugin.video.yousee.tv/) failed
  64. 22:08:20 T:2963472384 M:235806720 NOTICE: -->Python Interpreter Initialized<--
  65. 22:08:20 T:2963472384 M:222674944 NOTICE: {'unplayed': 'True', 'albums': 'False', 'limit': '8', 'totals': 'True'}
  66. 22:08:26 T:2695742784 M:250884096 NOTICE: Storing total System Uptime
  67. 22:08:26 T:2695742784 M:250884096 NOTICE: Saving settings
  68. 22:08:26 T:2695742784 M:250761216 NOTICE: stop all
  69. 22:08:27 T:2955120640 M:250753024 NOTICE: VideoInfoScanner: Finished scan. Scanning for video info took 00:25
  70. 22:08:27 T:2695742784 M:250839040 NOTICE: ES: Stopping event server
  71. 22:08:27 T:2695742784 M:250839040 NOTICE: stopping upnp
  72. 22:08:27 T:2960809984 M:251301888 NOTICE: ES: UDP Event server stopped
  73. 22:08:28 T:2695742784 M:251392000 NOTICE: stopping zeroconf publishing
  74. 22:08:28 T:2695742784 M:251392000 NOTICE: Webserver: Stopping...
  75. 22:08:28 T:2695742784 M:251400192 NOTICE: WebServer: Stopped the webserver
  76. 22:08:28 T:2695742784 M:251400192 NOTICE: Webserver: Stopped...
  77. 22:08:28 T:2695742784 M:251453440 NOTICE: stop dvd detect media
  78. 22:08:28 T:2695742784 M:251486208 NOTICE: stop sap announcement listener
  79. 22:08:28 T:2695742784 M:251486208 NOTICE: clean cached files!
  80. 22:08:28 T:2695742784 M:251486208 NOTICE: unload skin
  81. 22:08:28 T:2695742784 M:268767232 NOTICE: stop python
  82. 22:08:28 T:2954514432 M:268775424 NOTICE: -->Python Interpreter Initialized<--
  83. 22:08:28 T:2695742784 M:286879744 NOTICE: stopped
  84. 22:08:28 T:2695742784 M:286879744 NOTICE: destroy
  85. 22:08:28 T:2695742784 M:286879744 NOTICE: unload sections
  86.  
  87.  
RAW Paste Data